This demonstration page uses our WeatherBlox Daily Observations layout. Learn more.

Left ArrowRight Arrow

39.08367, -84.50855

Hourly Observations for May 2, 2017

Temp ( °F °C ) Dew Point ( °F °C ) Humidity (%) Winds ( mph kmh ) Pressure ( in mb ) Visibility ( mi km ) Precip ( " mm )
12:53 am 00:53 Cloudy 51 10.6 44 6.7 77 77 SW 13 20 29.75 1007 10 16 0.00 0.03
1:53 am 01:53 Cloudy 50 10 45 7.2 83 83 SSW 13 20 29.74 1007 10 16 0.00 0.03
2:31 am 02:31 Cloudy 51 10.6 44 6.7 77 77 SW 16 26 29.77 1008 10 16 0.00 0.00
2:53 am 02:53 Cloudy 50 10 43 6.1 77 77 WSW 15 24 29.73 1007 10 16 0.00 0.03
3:53 am 03:53 Cloudy 49 9.4 45 7.2 86 86 SW 13 20 29.75 1007 10 16 0.01 0.25
4:53 am 04:53 Cloudy with Light Rain 49 9.4 44 6.7 83 83 SW 18 30 29.75 1008 10 16 0.00 0.03
5:53 am 05:53 Cloudy 50 10 44 6.7 80 80 WSW 16 26 29.77 1008 10 16 0.00 0.03
6:53 am 06:53 Mostly Cloudy 51 10.6 43 6.1 74 74 SW 13 20 29.77 1008 10 16 0.00 0.00
7:53 am 07:53 Mostly Cloudy 51 10.6 43 6.1 74 74 SW 13 20 29.79 1009 10 16 0.00 0.00
8:53 am 08:53 Mostly Cloudy 53 11.7 44 6.7 72 72 WSW 17 28 29.80 1009 10 16 0.00 0.00
9:53 am 09:53 Mostly Sunny 56 13.3 43 6.1 62 62 WSW 21 33 29.81 1010 10 16 0.00 0.00
10:53 am 10:53 Mostly Sunny 59 15 42 5.6 54 54 WSW 23 37 29.82 1010 10 16 0.00 0.00
11:04 am 11:04 Mostly Sunny 59 15 41 5 51 51 W 24 39 29.83 1010 10 16 0.00 0.00
11:53 am 11:53 Mostly Cloudy 60 15.6 41 5 50 50 WSW 20 31 29.84 1011 10 16 0.00 0.00
12:53 pm 12:53 Mostly Cloudy 60 15.6 40 4.4 47 47 WSW 20 31 29.85 1011 10 16 0.00 0.00
1:53 pm 13:53 Mostly Cloudy 63 17.2 45 7.2 52 52 WSW 21 33 29.84 1010 10 16 0.00 0.00
2:53 pm 14:53 Mostly Cloudy 64 17.8 44 6.7 48 48 SW 22 35 29.83 1010 10 16 0.00 0.00
3:53 pm 15:53 Partly Cloudy 66 18.9 45 7.2 47 47 WSW 20 31 29.83 1010 10 16 0.00 0.00
4:53 pm 16:53 Partly Cloudy 66 18.9 41 5 40 40 W 25 41 29.84 1011 10 16 0.00 0.00
5:53 pm 17:53 Mostly Cloudy 66 18.9 43 6.1 43 43 W 16 26 29.86 1011 10 16 0.00 0.00
6:53 pm 18:53 Mostly Cloudy 65 18.3 40 4.4 40 40 W 15 24 29.87 1012 10 16 0.00 0.00
7:53 pm 19:53 Mostly Cloudy 64 17.8 39 3.9 40 40 W 18 30 29.89 1012 10 16 0.00 0.00
8:27 pm 20:27 Mostly Cloudy 59 15 44 6.7 58 58 N 18 30 29.91 1013 10 16 0.00 0.00
8:53 pm 20:53 Partly Cloudy 57 13.9 44 6.7 62 62 NNW 9 15 29.94 1014 10 16 0.00 0.00
9:53 pm 21:53 Mostly Clear 54 12.2 43 6.1 67 67 N 12 19 29.99 1016 10 16 0.00 0.00
10:53 pm 22:53 Clear 52 11.1 42 5.6 69 69 NW 6 9 30.01 1016 10 16 0.00 0.00
11:53 pm 23:53 Clear 49 9.4 42 5.6 77 77 NNW 6 9 30.04 1017 10 16 0.00 0.00

Powered by AerisWeather